Showing default

MINXSS-2, 43758

Orbit data source: Space-Track

MINXSS-2, 43758 is a payload satellite owned by CU-LASP (US) in SSO that was launched on Mon, 03 Dec 2018 UTC via an FALCON 9 launch vehicle from the Air Force Western Test Range (AFWTR). Payload-class satellites include a variety of spacecraft equipped with specific instruments for various scientific and technological missions. These include communications satellites like Starlink; space stations such as the ISS; scientific satellites like the Hubble; Earth observation satellites from companies like Planet Labs, Umbra, and HawkEye 360; GPS; miniature CubeSats for education and research; and military/defense satellites.

Loading next visibility...
Identifier
43758, 2018-099A
Orbit
SSO
Country
Flag of USUS
Related business
Manufacturer
CU-LASP
Mission
Operational Amateur Astronomy
Bus & Motor
CUBESAT 3U, Unknown motor
Mass
3.52 kg wet, 3.52 kg dry
Launch date (UTC)
2018-12-03 (7 years ago)
Launch vehicle
FALCON 9
Launch site
Air Force Western Test Range (AFWTR)
Object type
Payload
Rocket body
Debris
Shape & HBR
Box + 2 Pan + 1 Ant, 0.4 m
Radar Cross Section
0.075 m², Medium (>0.1 m² and < 1m²)

Expand to show TLE details & history
Last TLE update: 4 hours ago

TLE from 4 hours ago
0 MINXSS-2
1 43758U 18099A   26127.81964544  .00027408  00000-0  59487-3 0  9990
2 43758  97.4545 203.0056 0007974  61.7396 298.4656 15.44320558407893
Epoch: 2026-05-07T19:40Z
TLE epoch observation values (Epoch: 2026-05-07T19:40:17.366Z)
Latitude
-0°
Longitude
42.27293°
Altitude
433.911 km
Speed
7.653 km/s
True Right ascension
13h 32m 01s
True Declination
0° 00' 00"
Sunlit
Object was in full shadow at epoch
Visualization orbit readout
Latitude
Unknown
Longitude
Unknown
Altitude
Unknown
Speed
Unknown
Apparent Right ascension
Unknown
Apparent Declination
Unknown
Sunlit
N/A
Visualization observer readout
Local Sidereal Time
08:09:43
Azimuth
Unknown
Elevation
Unknown
Doppler factor
Unknown
Orbital elements
Apogee altitude
435.74 km
Perigee altitude
424.882 km
Semi-major axis
6,808.448 km
Eccentricity
0.0008
Inclination
97.4545°
RAAN
203.0056°
Arg. of periapsis
61.7396°
True anomaly
298.38523°
Mean anomaly
298.4656°
Eccentric anomaly
298.42542°
Mean motion
3.86341 °/min
Orbital period
93.18 mins
BSTAR
0.00059487
Loading maneuver chart data...
Computing Atmospheric mass density...
Loading historical data...
Loading historical data...
Loading historical data...
Loading historical data...
Loading historical data...
Loading historical data...
Loading historical data...

Documentation

Showing up to 5 results
|